Effective Sunday, March 17, 2024, the National Weather Service National Data Buoy Center will discontinue its Dial-A-Buoy Interactive Voice Response system. For more information, see Service Change Notice 24-06 (PDF).

Station 42059 - Eastern Caribbean Sea - 180 NM SSW of Ponce, PR Image indicating link to RSS feed of recent meteorological observations for station 42059


Conditions at 42059 as of
(4:10 pm EGT)
1710 GMT on 02/22/2024:
     

Click on the graph icon in the table below to see a time series plot of the last five days of that observation.

5-day plot - Wind Direction Wind Direction (WDIR):NNE ( 30 deg true )
5-day plot - Wind Speed Wind Speed (WSPD):6.0 m/s
5-day plot - Wind Gust Wind Gust (GST):8.0 m/s
5-day plot - Atmospheric Pressure Atmospheric Pressure (PRES):1012.5 mb
5-day plot - Air Temperature Air Temperature (ATMP): 26.3 °C
5-day plot - Dew Point Dew Point (DEWP): 23.4 °C
5-day plot - Heat Index Heat Index (HEAT): 28.5 °C
5-day plot - Wind Speed at 10 Meters Wind Speed at 10 meters (WSPD10M): 7 m/s
5-day plot - Wind Speed at 20 Meters Wind Speed at 20 meters (WSPD20M): 7 m/s
5-day plot -  Wind Speed, Wind Gust and Atmospheric Pressure Combined plot of Wind Speed, Gust, and Air Pressure
Supplemental Measurements
Highest 1-minute Wind Speed
Time (EGT)5-day plot - 1-Minute Wind Speed WSPD 5-day plot - 1-Minute Wind Direction WDIR
4:03 pm 7 m/s-
Previous observations
TIME
(EGT)
5-day plot - Wind Direction
WDIR
 
5-day plot - Wind Speed
WSPD
m/s
5-day plot - Wind Gust
GST
m/s
5-day plot - Wave Height
WVHT
m
5-day plot - Dominant Wave Period
DPD
sec
5-day plot - Average Wave Period
APD
sec
5-day plot - Mean Wave Direction
MWD
 
5-day plot - Atmospheric Pressure
PRES
mb
5-day plot - Pressure Tendency
PTDY
mb
5-day plot - Air Temperature
ATMP
°C
5-day plot - Water Temperature
WTMP
°C
5-day plot - Dew Point
DEWP
°C
5-day plot - Salinity
SAL
psu
5-day plot - Visibility
VIS
km
5-day plot - Tide (above MLLW)
TIDE
m
2024-02-22 04:00 pmNNE 6.0 8.0----1012.7 -1.3 26.2- 23.6---
2024-02-22 03:50 pmNNE 6.0 8.0 1.1 84.9NNE1012.8- 26.3- 23.6---
2024-02-22 03:40 pmNNE 6.0 7.0----1012.9- 26.4- 23.6---
2024-02-22 03:30 pmNNE 6.0 8.0----1013.0- 26.4- 23.6---
2024-02-22 03:20 pm N 6.0 8.0 1.1 85.0 E1013.3- 26.3- 23.3---
2024-02-22 03:10 pm N 6.0 8.0 1.1-5.0 E1013.3- 26.4- 23.5---
2024-02-22 03:00 pm N 6.0 8.0----1013.6 +0.0 26.5- 23.3---
2024-02-22 02:50 pm N 6.0 8.0 1.1 84.8 E1013.7- 26.3- 23.1---
2024-02-22 02:40 pm N 6.0 8.0----1013.8- 26.1- 23.4---
2024-02-22 02:30 pm N 7.0 8.0----1013.9- 26.2- 23.9---
2024-02-22 02:20 pmNNE 6.0 7.0 1.0 94.8 E1014.0- 26.3- 23.8---
2024-02-22 02:10 pmNNE 6.0 7.0 1.0-4.8 E1014.1- 26.3- 23.7---
2024-02-22 02:00 pm N 7.0 8.0----1014.2 +1.5 26.2- 23.7---
2024-02-22 01:50 pm N 6.0 8.0 1.0 84.8 E1014.2- 26.4- 23.1---
2024-02-22 01:40 pm N 6.0 7.0----1014.2- 26.2- 23.0---
2024-02-22 01:30 pmNNE 6.0 7.0----1014.3- 26.1- 23.5---
2024-02-22 01:20 pm N 6.0 7.0 1.0 85.1ENE1014.2- 26.1- 23.7---
2024-02-22 01:10 pmNNE 6.0 7.0 1.0-5.1ENE1014.2- 26.2- 23.5---
2024-02-22 01:00 pm N 6.0 7.0----1014.1 +2.0 26.2- 23.7---
2024-02-22 12:50 pm N 6.0 7.0 1.0 95.2ENE1014.0- 26.3- 23.8---
2024-02-22 12:40 pm N 6.0 7.0----1013.8- 26.2- 23.6---
2024-02-22 12:30 pm N 6.0 7.0----1013.8- 26.2- 23.8---
2024-02-22 12:20 pm N 7.0 8.0 0.9 95.2 E1013.6- 26.2- 23.6---
2024-02-22 12:10 pm N 7.0 8.0----1013.5- 26.2- 23.4---
2024-02-22 12:00 pm N 7.0 8.0----1013.4 +2.2 26.2- 23.6---
2024-02-22 11:50 am N 7.0 9.0 1.0 95.7 E1013.3- 26.1- 23.8---
2024-02-22 11:40 am N 7.0 9.0 1.0-5.7 E1013.2- 26.1- 23.9---
2024-02-22 11:30 am N 5.0 8.0----1013.1- 26.6- 23.7---
2024-02-22 11:20 am N 3.0 4.0 0.9 85.6 E1013.0- 26.8- 23.5---
2024-02-22 11:10 am N 3.0 4.0 0.9-5.6 E1012.8- 26.7- 23.5---
2024-02-22 11:00 am N 3.0 5.0----1012.7 +1.8 26.6- 23.4---
2024-02-22 10:50 am N 3.0 4.0 0.8 95.6 E1012.7- 26.6- 23.3---
2024-02-22 10:40 am N 4.0 4.0----1012.6- 26.5- 23.4---
2024-02-22 10:30 amNNW 4.0 5.0----1012.5- 26.4- 23.2---
2024-02-22 10:20 amNNW 4.0 5.0 0.9 86.0ENE1012.4- 26.5- 23.2---
2024-02-22 10:10 amNNW 4.0 5.0 0.9-6.0ENE1012.1- 26.5- 22.9---
2024-02-22 10:00 amNNW 4.0 5.0----1012.0 +1.3 26.5- 22.9---
2024-02-22 09:50 amNNW 4.0 4.0 0.9 95.9 E1011.9- 26.5- 22.8---
2024-02-22 09:40 amNNW 3.0 5.0----1011.9- 26.4- 22.8---
2024-02-22 09:30 amNNW 3.0 4.0----1011.8- 26.4- 23.1---
2024-02-22 09:20 amNNW 3.0 3.0 0.9 95.8 E1011.6- 26.4- 23.2---
2024-02-22 09:10 am NW 2.0 3.0 0.9-5.8 E1011.5- 26.4- 23.1---
2024-02-22 09:00 amNNW 2.0 3.0----1011.3 +0.0 26.4- 23.1---
2024-02-22 08:50 am NW 1.0 2.0 0.8 75.8ENE1011.1- 26.3- 22.9---
2024-02-22 08:40 amNNW 2.0 3.0----1011.1- 26.3- 22.8---
2024-02-22 08:30 am NW 1.0 2.0----1011.0- 26.2- 23.0---
2024-02-22 08:20 amWNW 1.0 2.0 0.9 96.0ENE1010.9- 26.3- 23.1---
2024-02-22 08:10 am NW 2.0 3.0 0.9-6.0ENE1010.8- 26.2- 22.9---
2024-02-22 08:00 am NW 2.0 3.0----1010.8 -0.6 26.2- 23.0---
2024-02-22 07:50 am NW 2.0 3.0 0.9 86.0ESE1010.8- 26.2- 23.1---
2024-02-22 07:40 amNNW 2.0 3.0 0.9-6.0ESE1010.7- 26.2- 23.3---
2024-02-22 07:30 amNNW 1.0 3.0----1010.8- 26.2- 23.3---
2024-02-22 07:20 amNNW 2.0 3.0 0.9 85.8 E1010.8- 26.2- 23.4---
2024-02-22 07:10 amNNW 2.0 2.0----1010.8- 26.2- 23.3---
2024-02-22 07:00 amNNW 1.0 2.0----1010.8 -1.6 26.2- 23.3---
2024-02-22 06:50 am NW 1.0 2.0 0.8 95.6 E1010.8- 26.2- 23.3---
2024-02-22 06:40 am NW 1.0 2.0 0.8-5.6 E1010.8- 26.3- 23.5---
2024-02-22 06:30 am NW 1.0 2.0----1010.8- 26.3- 23.3---
2024-02-22 06:20 am- 0.0 1.0 0.9 85.6 E1010.9- 26.3- 23.5---
2024-02-22 06:10 am- 0.0 1.0 0.9-5.6 E1011.1- 26.3- 23.4---
2024-02-22 06:00 am- 0.0 1.0----1011.1 -1.6 26.3- 23.3---
2024-02-22 05:50 am- 0.0 1.0 0.9 95.5 E1011.1- 26.3- 23.4---
2024-02-22 05:40 am- 0.0 1.0----1011.2- 26.3- 23.3---
2024-02-22 05:30 am E 1.0 2.0----1011.3- 26.3- 23.4---
2024-02-22 05:20 am E 1.0 2.0 0.9 95.7 E1011.3- 26.3- 23.5---
2024-02-22 05:10 am E 2.0 2.0 0.9-5.7 E1011.4- 26.3- 23.6---
2024-02-22 05:00 am E 2.0 2.0----1011.6 -1.6 26.3- 23.6---
2024-02-22 04:50 am NE 2.0 3.0 0.9 75.7ENE1011.8- 26.3- 23.7---
2024-02-22 04:40 am NE 2.0 3.0----1012.0- 26.3- 23.8---
2024-02-22 04:30 amNNE 2.0 3.0----1012.1- 26.3- 23.8---
2024-02-22 04:20 amNNE 2.0 3.0 0.9 85.7 E1012.3- 26.4- 23.8---
2024-02-22 04:10 am NE 2.0 3.0----1012.4- 26.5- 23.4---
2024-02-22 04:00 amENE 1.0 2.0----1012.4 -0.5 26.5- 23.2---
2024-02-22 03:50 am E 2.0 2.0 0.9 65.5 E1012.4- 26.5- 23.2---
2024-02-22 03:40 amENE 2.0 2.0----1012.5- 26.6- 23.2---
2024-02-22 03:30 amENE 1.0 2.0----1012.6- 26.6- 23.1---
2024-02-22 03:20 amENE 2.0 2.0 0.9 85.5 E1012.7- 26.6- 23.2---
2024-02-22 03:10 amENE 1.0 2.0 0.9-5.5 E1012.7- 26.6- 23.2---
2024-02-22 03:00 amENE 1.0 2.0----1012.7 +0.0 26.6- 23.1---
2024-02-22 02:50 amENE 1.0 2.0 1.0 85.7 E1012.7- 26.7- 23.1---
2024-02-22 02:40 am NE 1.0 1.0----1012.9- 26.6- 22.9---
2024-02-22 02:30 am N 1.0 2.0----1012.9- 26.7- 23.1---
2024-02-22 02:20 amNNE 1.0 2.0 0.9 85.6 E1013.0- 26.7- 23.1---
2024-02-22 02:10 amNNE 1.0 2.0 0.9-5.6 E1013.1- 26.7- 23.1---
2024-02-22 02:00 am N 1.0 2.0----1013.1 +1.5 26.7- 23.1---
2024-02-22 01:50 am N 1.0 2.0 0.9 85.8 E1013.2- 26.6- 23.0---
2024-02-22 01:40 amNNE 1.0 2.0----1013.2- 26.7- 23.2---
2024-02-22 01:30 amNNE 1.0 2.0----1013.2- 26.7- 23.2---
2024-02-22 01:20 amNNE 1.0 2.0 0.9 95.8 E1013.1- 26.7- 23.1---
2024-02-22 01:10 am NE 1.0 1.0 0.9-5.8 E1012.9- 26.7- 23.1---
2024-02-22 01:00 am- 0.0 1.0----1012.9 +2.3 26.7- 23.1---
2024-02-22 12:50 am- 0.0 1.0 0.9 95.4 E1012.9- 26.7- 23.2---
2024-02-22 12:40 am- 0.0 1.0----1012.7- 26.7- 23.1---
2024-02-22 12:30 am NE 1.0 1.0----1012.7- 26.9- 23.3---
2024-02-22 12:20 am- 0.0 1.0 0.9 85.5 E1012.7- 26.9- 22.7---
2024-02-22 12:10 am- 0.0 1.0 0.9-5.5 E1012.6- 26.9- 22.7---
2024-02-22 12:00 amSSW 1.0 2.0----1012.4 +1.8 26.9- 22.6---
2024-02-21 11:50 pm- 0.0 0.0 0.9 55.5ENE1012.4- 26.9- 22.5---
2024-02-21 11:40 pm- 0.0 1.0 0.9-5.5ENE1012.3- 26.8- 22.4---
2024-02-21 11:30 pm- 0.0 1.0----1012.2- 26.7- 22.5---
2024-02-21 11:20 pmSSE 1.0 2.0 1.0 95.6 E1012.0- 26.7- 23.0---
2024-02-21 11:10 pmESE 1.0 2.0 1.0-5.6 E1011.7- 26.6- 23.2---
2024-02-21 11:00 pmESE 1.0 2.0----1011.6 +0.9 26.6- 23.2---
2024-02-21 10:50 pm SE 1.0 2.0 0.9 85.7 E1011.5- 26.6- 23.1---
2024-02-21 10:40 pm SE 1.0 2.0----1011.2- 26.6- 23.1---
2024-02-21 10:10 pm SE 2.0 3.0 0.9-5.6 E1010.8- 26.5- 22.9---
2024-02-21 10:00 pmSSE 3.0 3.0----1010.6 -0.5 26.6- 23.1---
2024-02-21 09:50 pmSSE 3.0 4.0 0.9 95.5ESE1010.4- 26.6- 22.9---
2024-02-21 09:40 pmSSE 3.0 4.0----1010.3- 26.5- 22.9---
2024-02-21 09:30 pmSSE 3.0 4.0----1010.4- 26.6- 23.0---
2024-02-21 09:20 pm SE 2.0 3.0 0.9 85.6 E1010.5- 26.6- 23.2---
2024-02-21 09:10 pmSSE 2.0 3.0 0.9-5.6 E1010.6- 26.7- 23.3---
2024-02-21 09:00 pm S 2.0 3.0----1010.7 -1.1 26.7- 23.4---
2024-02-21 08:50 pmSSW 2.0 3.0 0.9 95.6 E1010.8- 26.7- 23.6---
2024-02-21 08:40 pm S 2.0 3.0----1010.9- 26.6- 23.6---
2024-02-21 08:30 pm S 3.0 4.0----1010.8- 26.5- 23.6---
2024-02-21 08:20 pm S 4.0 4.0 0.9 85.7ENE1010.8- 26.5- 23.7---
2024-02-21 08:10 pmSSE 4.0 5.0 0.9-5.7ENE1010.7- 26.5- 23.4---
2024-02-21 08:00 pmSSE 4.0 5.0----1010.7 -2.5 26.4- 23.4---
2024-02-21 07:50 pmSSE 4.0 5.0 0.9 95.7ESE1010.8- 26.4- 23.6---
2024-02-21 07:40 pmSSE 4.0 5.0 0.9-5.7ESE1010.8- 26.5- 23.7---
2024-02-21 07:30 pmSSE 4.0 5.0----1010.8- 26.5- 23.6---
2024-02-21 07:20 pmSSE 3.0 4.0 0.9 75.6 E1010.9- 26.6- 23.2---
2024-02-21 07:10 pmSSE 3.0 4.0 0.9-5.6 E1010.9- 26.5- 22.2---
2024-02-21 07:00 pmSSE 2.0 3.0----1011.1 -3.0 26.4- 22.4---
2024-02-21 06:50 pm S 3.0 4.0 0.9 75.7 E1011.2- 26.3- 22.4---
2024-02-21 06:40 pmSSE 2.0 4.0----1011.3- 26.8- 23.3---
2024-02-21 06:30 pm S 1.0 2.0----1011.4- 26.3- 23.0---
2024-02-21 06:20 pm S 1.0 2.0 0.8 65.4 E1011.5- 25.6- 22.5---
2024-02-21 06:10 pm S 2.0 4.0----1011.7- 25.2- 22.4---
2024-02-21 06:00 pmSSW 4.0 4.0----1011.8 -2.9 24.8- 22.9---
2024-02-21 05:50 pmSSW 4.0 5.0 0.8 65.4 E1012.0- 24.5- 23.0---
2024-02-21 05:40 pmSSW 4.0 5.0----1012.2- 24.4- 22.9---
2024-02-21 05:30 pm S 5.0 6.0----1012.4- 24.2- 22.8---
2024-02-21 05:20 pm S 5.0 5.0 0.9 95.7 E1012.5- 24.0- 23.0---
2024-02-21 05:10 pm S 4.0 5.0 0.9-5.7 E1012.8- 23.9- 23.2---
2024-02-21 05:00 pm S 4.0 5.0----1013.1 -2.0 23.8- 23.1---
2024-02-21 04:50 pm S 3.0 4.0 0.9 65.5 E1013.4- 23.7- 22.9---
2024-02-21 04:40 pm S 3.0 3.0----1013.6- 23.7- 22.8---
2024-02-21 04:30 pm S 3.0 4.0----1013.8- 24.2- 22.9---
2024-02-21 04:20 pmSSE 3.0 4.0 0.9 65.3 E1014.1- 24.6- 22.7---
2024-02-21 04:10 pm E 4.0 5.0----1014.1- 24.9- 22.8---
2024-02-21 04:00 pm E 4.0 5.0----1014.2 -0.9 25.0- 22.7---
2024-02-21 03:50 pm E 5.0 6.0 0.9 95.5ENE1014.2- 25.2- 23.2---

Detailed Wave Summary
for 42059 as of (3:40 pm EGT)
1640 GMT on 02/22/2024:

These wave data are displayed in rounded times.

     

Click on the graph icon in the table below to see a time series plot of the last five days of that observation.

5-day plot - Significant Wave Height Significant Wave Height (WVHT): 1.1 m
5-day plot - Swell Height Swell Height (SwH): 0.8 m
5-day plot - Swell Period Swell Period (SwP): 8.3 sec
5-day plot - Swell Direction Swell Direction (SwD):NNE
5-day plot - Wind Wave Height Wind Wave Height (WWH): 0.8 m
5-day plot - Wind Wave Period Wind Wave Period (WWP): 4.0 sec
5-day plot - Wind Wave Direction Wind Wave Direction (WWD): N
5-day plot - Wave Steepness Wave Steepness (STEEPNESS): SWELL
5-day plot - Average Wave Period Average Wave Period (APD): 4.9 sec
Previous observations
TIME
(EGT)
5-day plot - Wave Height
WVHT
m
5-day plot - Swell Height
SwH
m
5-day plot - Swell Period
SwP
sec
5-day plot - Swell Direction
SwD
 
5-day plot - Wind Wave Height
WWH
m
5-day plot - Wind Wave Period
WWP
sec
5-day plot - Wind Wave Direction
WWD
 
5-day plot - Wave Steepness
STEEPNESS
 
5-day plot - Average Wave Period
APD
sec
2024-02-22 03:10 pm 1.1 0.7 8.3 E 0.8 4.5 NNE AVERAGE 5.0
2024-02-22 02:40 pm 1.1 0.7 8.3 E 0.8 4.2 NNE AVERAGE 4.8
2024-02-22 02:10 pm 1.0 0.7 9.1 E 0.7 5.0 ENE SWELL 4.8
2024-02-22 01:40 pm 1.0 0.7 8.3 E 0.6 5.3 E SWELL 4.8
2024-02-22 01:10 pm 1.0 0.8 8.3ENE 0.6 4.3 ENE SWELL 5.1
2024-02-22 12:40 pm 1.0 0.8 9.1ENE 0.6 2.9 N SWELL 5.2
2024-02-22 12:10 pm 0.9 0.7 9.1 E 0.7 5.6 E SWELL 5.2
2024-02-22 11:40 am 1.0 0.7 9.1 E 0.7 6.7 ENE SWELL 5.7
2024-02-22 11:10 am 0.9 0.9 8.3 E 0.3 3.4 ENE SWELL 5.6
2024-02-22 10:40 am 0.8 0.8 9.1 E 0.2 3.3 ENE SWELL 5.6
2024-02-22 10:10 am 0.9 0.8 8.3ENE 0.3 4.0 ENE SWELL 6.0
2024-02-22 09:40 am 0.9 0.8 9.1 E 0.3 3.4 NE SWELL 5.9
2024-02-22 09:10 am 0.9 0.9 9.1 E 0.3 3.8 E SWELL 5.8
2024-02-22 08:40 am 0.8 0.8 7.1ENE 0.2 4.0 E AVERAGE 5.8
2024-02-22 08:10 am 0.9 0.9 9.1ENE 0.2 3.8 ENE SWELL 6.0
2024-02-22 07:40 am 0.9 0.9 8.3ESE 0.2 4.0 E SWELL 6.0
2024-02-22 07:10 am 0.9 0.8 8.3 E 0.2 3.3 NE SWELL 5.8
2024-02-22 06:40 am 0.8 0.8 9.1 E 0.2 3.6 ENE SWELL 5.6
2024-02-22 06:10 am 0.9 0.8 7.7 E 0.3 3.7 E AVERAGE 5.6
2024-02-22 05:40 am 0.9 0.8 9.1 E 0.3 3.8 ENE SWELL 5.5
2024-02-22 05:10 am 0.9 0.9 9.1 E 0.3 3.7 ENE SWELL 5.7
2024-02-22 04:40 am 0.9 0.9 7.1ENE 0.3 3.8 E AVERAGE 5.7
2024-02-22 04:10 am 0.9 0.9 8.3 E 0.3 3.7 E SWELL 5.7
2024-02-22 03:40 am 0.9 0.8 5.9 E 0.3 3.8 ESE STEEP 5.5
2024-02-22 03:10 am 0.9 0.8 7.7 E 0.3 3.2 ENE AVERAGE 5.5
2024-02-22 02:40 am 1.0 0.9 7.7 E 0.3 3.7 E AVERAGE 5.7
2024-02-22 02:10 am 0.9 0.9 7.7 E 0.3 3.1 E AVERAGE 5.6
2024-02-22 01:40 am 0.9 0.9 8.3 E 0.3 3.7 E SWELL 5.8
2024-02-22 01:10 am 0.9 0.9 9.1 E 0.3 4.0 E SWELL 5.8
2024-02-22 12:40 am 0.9 0.8 9.1 E 0.3 3.4 E SWELL 5.4
2024-02-22 12:10 am 0.9 0.8 8.3 E 0.3 4.0 ENE SWELL 5.5
2024-02-21 11:40 pm 0.9 0.9 5.3ENE 0.3 3.8 E STEEP 5.5
2024-02-21 11:10 pm 1.0 0.9 9.1 E 0.3 3.7 ENE SWELL 5.6
2024-02-21 10:40 pm 0.9 0.9 8.3 E 0.3 4.0 ENE SWELL 5.7
2024-02-21 10:10 pm 0.9 0.8 8.3 E 0.3 4.0 E SWELL 5.6
2024-02-21 09:40 pm 0.9 0.9 9.1ESE 0.3 3.7 ENE SWELL 5.5
2024-02-21 09:10 pm 0.9 0.8 8.3 E 0.3 3.7 ENE SWELL 5.6
2024-02-21 08:40 pm 0.9 0.8 9.1 E 0.3 3.7 ENE SWELL 5.6
2024-02-21 08:10 pm 0.9 0.8 8.3ENE 0.3 3.7 E SWELL 5.7
2024-02-21 07:40 pm 0.9 0.8 9.1ESE 0.3 3.8 E SWELL 5.7
2024-02-21 07:10 pm 0.9 0.8 6.7 E 0.2 3.7 NE AVERAGE 5.6
2024-02-21 06:40 pm 0.9 0.8 6.7 E 0.2 3.7 E AVERAGE 5.7
2024-02-21 06:10 pm 0.8 0.8 6.2 E 0.3 3.8 ESE AVERAGE 5.4
2024-02-21 05:40 pm 0.8 0.8 6.2 E 0.3 3.8 ENE AVERAGE 5.4
2024-02-21 05:10 pm 0.9 0.8 9.1 E 0.3 3.8 NE SWELL 5.7
2024-02-21 04:40 pm 0.9 0.8 5.6 E 0.3 3.8 ENE STEEP 5.5
2024-02-21 04:10 pm 0.9 0.9 6.2 E 0.3 3.3 ENE STEEP 5.3

Plot of wave energy versus frequency (and period)